sat.trackr.live / text

‹ back to catalog

STARLINK-35303

NORAD 65860 · 2025-223G

PAYLOAD ACTIVE UNKNOWN

§ Identity

Operator
Country
US
Launch date
2025-10-03
Launch site
AFWTR
Launch vehicle
Mass (kg)
RCS (m²)

Purposes: comms

External: N2YO · Heavens-Above · Gunter

§ Orbital elements

Epoch: 2026-09-20T23:02:43.779552Z

Period
93.85 min
Inclination
53.1603°
Eccentricity
0.0000564
Mean motion
15.34409821 rev/d
Perigee alt
462.3 km
Apogee alt
463.1 km
Semi-major
6,840.8 km
B*
6.3602e-4
RAAN
103.5364°
Arg perigee
74.4763°
Mean anomaly
285.6302°
Rev number
5,415

§ Raw data

STARLINK-353031 65860U 25223G   26263.96022893  .00021180  00000+0  63602-3 0  99982 65860  53.1603 103.5364 0000564  74.4763 285.6302 15.34409821 54151

JSON: /api/v1/satellites/65860 · /tle

For live sub-satellite position, see the globe view (requires WebGL).

§ Visibility from observer

Set your observer location to see the next 7 days of passes ≥ 10°. The values pass through the URL so the page stays shareable.

No JS? Fill the form by hand. The geolocation button needs JavaScript.